| time (UTC) | temp C | wind direction | speed KPH | gust KPH | rain 1hr cm | rain 24hr cm | rain mn cm | humidity % | barometer mb |
| 20260505224537 | 27 | 356 | 0.0 | 11.3 | 0.00 | 0.00 | 0.00 | 33 | 1013.2 |
| 20260505223109 | 27 | 355 | 3.2 | 12.9 | 0.00 | 0.00 | 0.00 | 34 | 1013.4 |
| 20260505221531 | 26 | 351 | 1.6 | 11.3 | 0.00 | 0.00 | 0.00 | 34 | 1013.5 |
| 20260505220030 | 26 | 340 | 3.2 | 16.1 | 0.00 | 0.00 | 0.00 | 34 | 1013.6 |
| 20260505214612 | 27 | 53 | 1.6 | 11.3 | 0.00 | 0.00 | 0.00 | 35 | 1013.7 |
| 20260505213029 | 26 | 356 | 1.6 | 14.5 | 0.00 | 0.00 | 0.00 | 37 | 1013.7 |
| 20260505211530 | 26 | 2 | 3.2 | 14.5 | 0.00 | 0.00 | 0.00 | 39 | 1013.9 |
| 20260505204536 | 26 | 29 | 3.2 | 9.7 | 0.00 | 0.00 | 0.00 | 42 | 1014.1 |
| 20260505203038 | 25 | 9 | 1.6 | 11.3 | 0.00 | 0.00 | 0.00 | 43 | 1014.2 |
| 20260505201534 | 25 | 359 | 3.2 | 11.3 | 0.00 | 0.00 | 0.00 | 43 | 1014.2 |
| 20260505200037 | 25 | 13 | 3.2 | 12.9 | 0.00 | 0.00 | 0.00 | 45 | 1014.2 |
| 20260505193035 | 23 | 359 | 3.2 | 16.1 | 0.00 | 0.00 | 0.00 | 49 | 1014.4 |
| 20260505191537 | 23 | 11 | 1.6 | 9.7 | 0.00 | 0.00 | 0.00 | 51 | 1014.4 |
| 20260505190035 | 22 | 14 | 1.6 | 11.3 | 0.00 | 0.00 | 0.00 | 51 | 1014.6 |
| 20260505184535 | 22 | 9 | 3.2 | 9.7 | 0.00 | 0.00 | 0.00 | 53 | 1014.6 |
| 20260505181535 | 21 | 351 | 1.6 | 14.5 | 0.00 | 0.00 | 0.00 | 57 | 1014.6 |
| 20260505180032 | 20 | 317 | 1.6 | 11.3 | 0.00 | 0.00 | 0.00 | 58 | 1014.6 |
| 20260505174610 | 20 | 324 | 1.6 | 11.3 | 0.00 | 0.00 | 0.00 | 60 | 1014.6 |
| 20260505173031 | 19 | 13 | 1.6 | 11.3 | 0.00 | 0.00 | 0.00 | 63 | 1014.5 |
| 20260505171609 | 18 | 360 | 1.6 | 9.7 | 0.00 | 0.00 | 0.00 | 64 | 1014.5 |
| 20260505170037 | 18 | 46 | 1.6 | 11.3 | 0.00 | 0.00 | 0.00 | 65 | 1014.5 |
| 20260505164535 | 17 | 60 | 3.2 | 11.3 | 0.00 | 0.00 | 0.00 | 67 | 1014.5 |
| 20260505163035 | 17 | 38 | 1.6 | 11.3 | 0.00 | 0.00 | 0.00 | 70 | 1014.5 |
| 20260505153143 | 15 | 14 | 0.0 | 4.8 | 0.00 | 0.00 | 0.00 | 76 | 1014.2 |
| 20260505151536 | 15 | 3 | 0.0 | 4.8 | 0.00 | 0.00 | 0.00 | 79 | 1014.2 |
| 20260505124535 | 9 | 302 | 0.0 | 3.2 | 0.00 | 0.00 | 0.00 | 80 | 1012.7 |
| 20260505121532 | 10 | 315 | 0.0 | 4.8 | 0.00 | 0.00 | 0.00 | 80 | 1012.6 |
| 20260505120045 | 10 | 315 | 0.0 | 1.6 | 0.00 | 0.00 | 0.00 | 79 | 1012.5 |
| 20260505120036 | 10 | 313 | 0.0 | 4.8 | 0.00 | 0.00 | 0.00 | 79 | 1012.4 |
| 20260505110110 | 11 | 292 | 0.0 | 1.6 | 0.00 | 0.00 | 0.00 | 77 | 1012.1 |
| 20260505101536 | 11 | 292 | 0.0 | 3.2 | 0.00 | 0.00 | 0.00 | 76 | 1011.9 |
| 20260505094535 | 12 | 292 | 0.0 | 0.0 | 0.00 | 0.00 | 0.00 | 74 | 1011.9 |
| 20260505093036 | 12 | 290 | 0.0 | 3.2 | 0.00 | 0.00 | 0.00 | 72 | 1011.8 |
| 20260505091535 | 12 | 270 | 0.0 | 0.0 | 0.00 | 0.00 | 0.00 | 72 | 1011.7 |
| 20260505090035 | 12 | 270 | 0.0 | 3.2 | 0.00 | 0.00 | 0.00 | 70 | 1011.6 |
| 20260505084532 | 13 | 290 | 0.0 | 6.4 | 0.00 | 0.00 | 0.00 | 69 | 1011.7 |
| 20260505081536 | 14 | 321 | 0.0 | 3.2 | 0.00 | 0.00 | 0.00 | 65 | 1011.7 |
| 20260505080110 | 15 | 300 | 0.0 | 8.0 | 0.00 | 0.00 | 0.00 | 63 | 1011.7 |
| 20260505073036 | 16 | 310 | 1.6 | 8.0 | 0.00 | 0.00 | 0.00 | 62 | 1011.5 |
| 20260505071608 | 16 | 327 | 1.6 | 8.0 | 0.00 | 0.00 | 0.00 | 59 | 1011.4 |
| 20260505070111 | 17 | 304 | 0.0 | 12.9 | 0.00 | 0.00 | 0.00 | 59 | 1011.3 |
| 20260505064534 | 17 | 248 | 4.8 | 17.7 | 0.00 | 0.00 | 0.00 | 58 | 1011.1 |
| 20260505060040 | 17 | 257 | 3.2 | 19.3 | 0.00 | 0.00 | 0.00 | 54 | 1011.1 |
| 20260505053036 | 18 | 245 | 8.0 | 22.5 | 0.00 | 0.00 | 0.00 | 52 | 1010.8 |
| 20260505051539 | 18 | 253 | 6.4 | 20.9 | 0.00 | 0.00 | 0.00 | 50 | 1010.7 |
| 20260505050108 | 18 | 241 | 9.7 | 27.4 | 0.00 | 0.00 | 0.00 | 49 | 1010.6 |
| 20260505041537 | 18 | 237 | 9.7 | 22.5 | 0.00 | 0.00 | 0.00 | 45 | 1010.3 |
| 20260505040050 | 18 | 236 | 9.7 | 25.7 | 0.00 | 0.00 | 0.00 | 44 | 1010.1 |
| 20260505034534 | 19 | 240 | 8.0 | 29.0 | 0.00 | 0.00 | 0.00 | 43 | 1010.0 |
| 20260505033036 | 20 | 257 | 4.8 | 16.1 | 0.00 | 0.00 | 0.00 | 41 | 1009.8 |
| 20260505023036 | 21 | 241 | 9.7 | 24.1 | 0.00 | 0.00 | 0.00 | 35 | 1009.3 |
| 20260505021530 | 22 | 245 | 8.0 | 24.1 | 0.00 | 0.00 | 0.00 | 32 | 1009.2 |
| 20260505020110 | 23 | 239 | 8.0 | 24.1 | 0.00 | 0.00 | 0.00 | 31 | 1009.1 |
| 20260505014536 | 23 | 235 | 11.3 | 37.0 | 0.00 | 0.00 | 0.00 | 30 | 1009.2 |
| 20260505010038 | 25 | 233 | 9.7 | 22.5 | 0.00 | 0.00 | 0.00 | 29 | 1009.3 |
| 20260505004535 | 26 | 232 | 9.7 | 25.7 | 0.00 | 0.00 | 0.00 | 28 | 1009.3 |
| 20260505003036 | 27 | 235 | 6.4 | 20.9 | 0.00 | 0.00 | 0.00 | 27 | 1009.3 |
| 20260505001536 | 27 | 245 | 4.8 | 20.9 | 0.00 | 0.00 | 0.00 | 25 | 1009.4 |
| 20260505000041 | 27 | 253 | 6.4 | 22.5 | 0.00 | 0.00 | 0.00 | 24 | 1009.4 |
| 20260504234535 | 28 | 249 | 9.7 | 19.3 | 0.00 | 0.00 | 0.00 | 25 | 1009.4 |
| 20260504233036 | 28 | 252 | 6.4 | 19.3 | 0.00 | 0.00 | 0.00 | 25 | 1009.4 |
| 20260504231535 | 28 | 252 | 4.8 | 19.3 | 0.00 | 0.00 | 0.00 | 25 | 1009.5 |
| 20260504230035 | 28 | 288 | 6.4 | 19.3 | 0.00 | 0.00 | 0.00 | 23 | 1009.6 |